[[{"header":{"parameterUnit":"m.s-1","parameterCategory":1,"la1":30.2991,"la2":30.254,"lo1":-89.0895,"lo2":-89.0444,"dy":0.0017,"dx":0.0017,"nx":28,"ny":28,"refTime":"2024-03-20T09:00:00:Z","depth":0,"parameterNumber":2,"parameterNumberName":"U-component_of_WINDS"},"data":[0,0,0,0,0,0,0,0,0,0,0,0,0,0,0,0,0,0,0,0,0,0,0,0,0,0,0,0,0,0,0,0,0,0,0,0,0,0,0,0,0,0,0,0,0,0,0,0,0,0,0,0,0,0,0,0,0,0,1.4953,1.4953,0,1.4974,1.4974,1.4975,1.4971,1.4971,1.497,1.497,1.4991,1.4992,1.4993,0,0,0,0,0,0,0,0,0,0,0,0,0,1.4911,1.4912,1.4953,1.4953,1.4954,1.4974,1.4974,1.4975,1.4971,1.4971,1.497,1.497,1.4991,1.4992,1.4993,0,0,0,0,0,0,0,0,0,0,0,0,0,1.493,1.4912,1.4953,1.4954,1.4955,1.4974,1.4974,1.4975,1.4971,1.4971,1.497,1.497,1.499,1.4992,1.4993,1.5012,0,0,1.4997,1.4998,0,0,0,0,0,0,0,0,1.4929,1.4932,1.4954,1.4954,1.4955,1.497,1.4967,1.4987,1.4971,1.4965,1.497,1.4969,1.4984,1.4986,1.4991,1.5013,1.5014,1.4997,1.4998,1.4999,1.4999,0,0,0,0,0,0,0,1.4928,1.4931,1.4961,1.4954,1.4955,1.4954,1.4956,1.4971,1.4977,1.4966,1.4965,1.4968,1.4984,1.499,1.4992,1.5015,1.4997,1.4999,1.4999,1.5,1.5055,1.5056,0,0,0,0,0,0,1.4926,1.493,1.4961,1.4962,1.494,1.4955,1.4958,1.4965,1.4977,1.4979,1.4968,1.4968,1.4988,1.499,1.4992,1.5017,1.4999,1.5,1.5001,1.5054,1.5055,1.5056,0,0,0,0,0,0,1.4925,1.4929,1.496,1.4946,1.495,1.4957,1.4965,1.4966,1.4972,1.4979,1.4981,1.4973,1.4988,1.4991,1.5008,1.5018,1.5001,1.5002,1.5054,1.5055,1.5056,1.5065,0,0,0,0,0,0,1.4924,1.4929,1.4936,1.4946,1.4951,1.4975,1.4966,1.4967,1.4974,1.4973,1.4984,1.4985,1.4987,1.5006,1.5009,1.5019,1.5003,1.5053,1.5054,1.5055,1.5064,1.5066,1.5068,0,0,0,0,0,1.4922,1.4937,1.4936,1.494,1.496,1.4975,1.4978,1.498,1.4975,1.4982,1.4988,1.4985,1.5016,1.5008,1.5011,1.5022,1.5052,1.5054,1.5055,1.5063,1.5066,1.5068,0,0,0,0,0,0,1.4927,1.4938,1.4937,1.4956,1.4965,1.4975,1.4984,1.4983,1.4994,1.4992,1.4995,1.4997,1.5015,1.502,1.5011,1.5042,1.5033,1.5036,1.5038,1.5041,1.5043,1.5041,1.5004,0,0,0,0,0,1.493,1.4942,1.4951,1.4967,1.4971,1.4977,1.4984,1.4985,1.4994,1.4998,1.5004,1.5014,1.5026,1.5033,1.5045,1.5065,1.5068,1.5074,1.5076,1.5078,1.508,1.5092,1.5095,1.5061,1.5061,1.5061,0,0,1.4937,1.4944,1.4951,1.4968,1.4975,1.4987,1.498,1.4993,1.5003,1.5,1.5017,1.5022,1.5033,1.5052,1.506,1.5056,1.509,1.508,1.5081,1.5082,1.5094,1.5097,1.51,1.5062,1.5062,1.5061,0,0,1.4955,1.4962,1.4976,1.4984,1.4995,1.4999,1.5002,1.5013,1.5016,1.5034,1.5032,1.5044,1.5064,1.5072,1.5078,1.5102,1.51,1.5105,1.5117,1.5129,1.5132,1.5134,1.5143,1.5146,1.5107,1.5107,1.5107,0,1.4962,1.4981,1.4983,1.4997,1.5005,1.5004,1.5019,1.5026,1.504,1.5045,1.5041,1.5067,1.5074,1.5096,1.5101,1.5107,1.5111,1.5104,1.5131,1.5133,1.5136,1.5145,1.5148,1.5108,1.5108,1.5108,1.5108,0,1.4989,1.5002,1.5012,1.5027,1.5035,1.505,1.5055,1.5064,1.5065,1.5069,1.5088,1.5096,1.511,1.5115,1.5115,1.5137,1.5134,1.513,1.5122,1.514,1.5148,1.5151,1.5109,1.5109,1.5109,1.5108,0,0,1.501,1.5027,1.5031,1.5038,1.5051,1.5061,1.5076,1.509,1.5098,1.5108,1.5121,1.5139,1.5135,1.5143,1.5145,1.5155,1.5175,1.515,1.515,1.5155,1.52,1.5204,1.5207,1.5174,1.5174,1.5175,1.52,0,1.503,1.5056,1.506,1.5083,1.5096,1.5096,1.5109,1.5119,1.5124,1.5136,1.5141,1.5154,1.5149,1.5153,1.5164,1.517,1.5184,1.5168,1.5186,1.5187,1.5184,1.5212,1.5215,1.5238,1.5203,1.5203,1.5204,0,1.5057,1.5069,1.5094,1.5107,1.5112,1.5124,1.5138,1.5149,1.516,1.5163,1.5173,1.5173,1.5189,1.518,1.5203,1.5192,1.52,1.5204,1.5205,1.5207,1.5197,1.5215,1.5245,1.5249,1.5209,1.5208,1.5208,0,1.5071,1.5094,1.5112,1.5118,1.5133,1.5141,1.5148,1.5158,1.5167,1.5179,1.5185,1.5198,1.5206,1.5217,1.5222,1.5214,1.5244,1.5235,1.5248,1.5248,1.5254,1.5254,1.5286,1.5258,1.5258,1.5258,1.5258,0,1.5094,1.511,1.5118,1.513,1.5147,1.5152,1.5169,1.5175,1.5185,1.5198,1.5198,1.521,1.5216,1.5229,1.5232,1.5251,1.5254,1.5258,1.5258,1.5258,1.5258,1.5263,1.5262,1.5259,1.5259,1.5258,1.5258,0,1.5113,1.5119,1.5139,1.5152,1.5156,1.5168,1.518,1.5191,1.5196,1.5212,1.5217,1.5225,1.5241,1.5246,1.5265,1.5268,1.5289,1.5289,1.5286,1.5286,1.5299,1.5298,1.5337,1.5342,1.531,1.531,1.531,0,1.5127,1.5139,1.5154,1.5163,1.517,1.5184,1.5193,1.5198,1.5208,1.5222,1.5232,1.5248,1.526,1.5285,1.5293,1.5308,1.5308,1.532,1.531,1.5309,1.5309,1.5308,1.531,1.5322,1.5323,1.5323,1.5323,0,1.5152,1.5155,1.5168,1.5183,1.5194,1.5206,1.5218,1.5225,1.5232,1.5243,1.5259,1.5269,1.5289,1.5304,1.532,1.5327,1.5327,1.5327,1.533,1.533,1.5328,1.533,1.5292,1.5326,1.5325,1.5325,1.5325,1.5325,1.5169,1.5181,1.5193,1.5208,1.5218,1.5229,1.5241,1.5248,1.5262,1.5279,1.5281,1.5298,1.5311,1.5331,1.5339,1.5353,1.535,1.5355,1.5357,1.5358,1.5359,1.5326,1.5356,1.5356,1.5356,1.5356,1.5356,0,1.5195,1.5204,1.5218,1.5234,1.5247,1.5246,1.5259,1.5269,1.5285,1.5296,1.5309,1.5329,1.5344,1.5354,1.537,1.5379,1.538,1.5384,1.5383,1.5385,1.5361,1.5357,1.5383,1.5383,1.5383,1.5383,1.5383,1.5383,1.521,1.5229,1.5234,1.5259,1.5267,1.5285,1.5292,1.5303,1.5313,1.5334,1.5348,1.5354,1.5365,1.5382,1.5397,1.5399,1.5405,1.5409,1.5412,1.5389,1.5386,1.5384,1.538,1.5411,1.5411,1.5435,1.5435,1.5435]},{"header":{"parameterUnit":"m.s-1","parameterCategory":1,"la1":30.2991,"la2":30.254,"lo1":-89.0895,"lo2":-89.0444,"dy":0.0017,"dx":0.0017,"nx":28,"ny":28,"refTime":"2024-03-20T09:00:00:Z","depth":0,"parameterNumber":3,"parameterNumberName":"V-component_of_WINDS"},"data":[0,0,0,0,0,0,0,0,0,0,0,0,0,0,0,0,0,0,0,0,0,0,0,0,0,0,0,0,0,0,0,0,0,0,0,0,0,0,0,0,0,0,0,0,0,0,0,0,0,0,0,0,0,0,0,0,0,0,-1.0926,-1.0927,0,-1.0961,-1.0961,-1.0961,-1.0945,-1.0944,-1.0943,-1.0943,-1.0978,-1.098,-1.0982,0,0,0,0,0,0,0,0,0,0,0,0,0,-1.0848,-1.0849,-1.0926,-1.0927,-1.0927,-1.0961,-1.0961,-1.0962,-1.0945,-1.0944,-1.0943,-1.0942,-1.0978,-1.098,-1.0982,0,0,0,0,0,0,0,0,0,0,0,0,0,-1.0882,-1.085,-1.0926,-1.0923,-1.0923,-1.0961,-1.0961,-1.0962,-1.0946,-1.0944,-1.0943,-1.0942,-1.0977,-1.0979,-1.0982,-1.1025,0,0,-1.099,-1.0991,0,0,0,0,0,0,0,0,-1.088,-1.0885,-1.0923,-1.0923,-1.0924,-1.0947,-1.0946,-1.0983,-1.0946,-1.0937,-1.0943,-1.0941,-1.0969,-1.0972,-1.0981,-1.1026,-1.1028,-1.099,-1.0992,-1.0993,-1.0994,0,0,0,0,0,0,0,-1.0878,-1.0883,-1.094,-1.0924,-1.0924,-1.092,-1.0924,-1.0953,-1.096,-1.0938,-1.0937,-1.0941,-1.0969,-1.0979,-1.0982,-1.1028,-1.099,-1.0993,-1.0994,-1.0995,-1.1111,-1.1112,0,0,0,0,0,0,-1.0875,-1.0881,-1.0939,-1.0941,-1.0898,-1.0923,-1.0927,-1.0941,-1.096,-1.0961,-1.0942,-1.094,-1.0975,-1.0979,-1.0983,-1.1035,-1.0993,-1.0996,-1.0997,-1.1109,-1.1111,-1.1113,0,0,0,0,0,0,-1.0874,-1.0881,-1.0937,-1.0911,-1.0918,-1.0926,-1.0942,-1.0942,-1.0953,-1.0963,-1.0964,-1.0951,-1.0974,-1.098,-1.1015,-1.1036,-1.0997,-1.0999,-1.1108,-1.111,-1.1112,-1.1139,0,0,0,0,0,0,-1.0871,-1.088,-1.0896,-1.0911,-1.0919,-1.0968,-1.0943,-1.0944,-1.0957,-1.0955,-1.0972,-1.0973,-1.0974,-1.1011,-1.1017,-1.1039,-1.1001,-1.1106,-1.1109,-1.1111,-1.1136,-1.1142,-1.1147,0,0,0,0,0,-1.0869,-1.0902,-1.0897,-1.0904,-1.0939,-1.0969,-1.0974,-1.0974,-1.0959,-1.0975,-1.0982,-1.0973,-1.1033,-1.1015,-1.1022,-1.1045,-1.1104,-1.1108,-1.1111,-1.1134,-1.1141,-1.1147,0,0,0,0,0,0,-1.0889,-1.0904,-1.0898,-1.0938,-1.0952,-1.0966,-1.0987,-1.0981,-1.1,-1.0997,-1.0996,-1.1,-1.1036,-1.1044,-1.1023,-1.1088,-1.1066,-1.1071,-1.1081,-1.1088,-1.1093,-1.1091,-1.1003,0,0,0,0,0,-1.0898,-1.0921,-1.0933,-1.0966,-1.0974,-1.0979,-1.0992,-1.0991,-1.1006,-1.1012,-1.1021,-1.1037,-1.1059,-1.1074,-1.1095,-1.1137,-1.1141,-1.1157,-1.1162,-1.1166,-1.1171,-1.1195,-1.1202,-1.1124,-1.1124,-1.1124,0,0,-1.0917,-1.0928,-1.0943,-1.0971,-1.0982,-1.1006,-1.0985,-1.1011,-1.1029,-1.1016,-1.105,-1.1057,-1.1074,-1.1114,-1.1131,-1.1121,-1.1193,-1.117,-1.1174,-1.1176,-1.1199,-1.1206,-1.1213,-1.1126,-1.1126,-1.1125,0,0,-1.0964,-1.0974,-1.1004,-1.1016,-1.1033,-1.1037,-1.1044,-1.1059,-1.1063,-1.1097,-1.1089,-1.111,-1.1148,-1.1161,-1.1173,-1.1226,-1.1218,-1.1232,-1.126,-1.1284,-1.129,-1.1295,-1.1315,-1.1322,-1.1237,-1.1237,-1.1237,0,-1.0986,-1.1021,-1.102,-1.1047,-1.106,-1.105,-1.108,-1.1092,-1.1115,-1.1125,-1.1113,-1.1161,-1.1172,-1.1215,-1.1228,-1.1237,-1.1246,-1.1231,-1.1289,-1.1294,-1.1299,-1.1318,-1.1326,-1.1239,-1.1238,-1.1238,-1.1238,0,-1.1048,-1.1073,-1.1094,-1.1117,-1.1133,-1.1161,-1.1165,-1.1181,-1.1178,-1.1183,-1.1218,-1.1231,-1.1255,-1.1265,-1.1262,-1.1307,-1.13,-1.1289,-1.1268,-1.1309,-1.1326,-1.1334,-1.1241,-1.124,-1.124,-1.1239,0,0,-1.1109,-1.1131,-1.1139,-1.115,-1.1168,-1.1188,-1.1216,-1.124,-1.1254,-1.127,-1.1295,-1.1328,-1.1317,-1.133,-1.1329,-1.135,-1.1392,-1.1336,-1.1336,-1.1347,-1.1444,-1.1453,-1.1461,-1.1387,-1.1388,-1.1389,-1.1443,0,-1.1158,-1.1207,-1.1208,-1.1254,-1.1277,-1.1268,-1.1293,-1.1307,-1.1313,-1.1334,-1.134,-1.1364,-1.1348,-1.1356,-1.1375,-1.1383,-1.1412,-1.1379,-1.141,-1.1412,-1.1407,-1.1471,-1.148,-1.153,-1.1449,-1.1451,-1.1451,0,-1.1222,-1.1241,-1.1289,-1.1305,-1.1315,-1.1338,-1.136,-1.138,-1.1396,-1.1398,-1.1414,-1.141,-1.1439,-1.1417,-1.1458,-1.1436,-1.1448,-1.1454,-1.1456,-1.146,-1.1435,-1.1477,-1.1546,-1.1554,-1.1462,-1.1461,-1.1461,0,-1.1263,-1.13,-1.1334,-1.1344,-1.1363,-1.1379,-1.1388,-1.1403,-1.1417,-1.1437,-1.1446,-1.1468,-1.1481,-1.1499,-1.1501,-1.1484,-1.1543,-1.152,-1.1547,-1.1547,-1.156,-1.1559,-1.1633,-1.1567,-1.1567,-1.1566,-1.1566,0,-1.1318,-1.1348,-1.1353,-1.1374,-1.1408,-1.1408,-1.1442,-1.1449,-1.1463,-1.1486,-1.1479,-1.1501,-1.1502,-1.1524,-1.1526,-1.1561,-1.1566,-1.157,-1.157,-1.1571,-1.1571,-1.158,-1.1577,-1.1568,-1.1568,-1.1568,-1.1567,0,-1.137,-1.1374,-1.1411,-1.1426,-1.1431,-1.1455,-1.1469,-1.1489,-1.1494,-1.1523,-1.153,-1.1538,-1.1564,-1.1568,-1.1598,-1.1599,-1.1641,-1.1637,-1.1636,-1.1636,-1.1662,-1.166,-1.1745,-1.1756,-1.1682,-1.1683,-1.1683,0,-1.1405,-1.1428,-1.1446,-1.1461,-1.1471,-1.1495,-1.151,-1.151,-1.1526,-1.1547,-1.1565,-1.1591,-1.1611,-1.1653,-1.1662,-1.1685,-1.1683,-1.1711,-1.1686,-1.1687,-1.1685,-1.1684,-1.1686,-1.1716,-1.1717,-1.1717,-1.1718,0,-1.1468,-1.1469,-1.1491,-1.1514,-1.1531,-1.1549,-1.1566,-1.1579,-1.1582,-1.16,-1.1627,-1.1643,-1.1674,-1.17,-1.1723,-1.1732,-1.1726,-1.1726,-1.1733,-1.1735,-1.1733,-1.1735,-1.165,-1.1724,-1.1723,-1.1723,-1.1723,-1.1722,-1.1513,-1.1534,-1.155,-1.1575,-1.1587,-1.1604,-1.1624,-1.1631,-1.1654,-1.1679,-1.1679,-1.1708,-1.1725,-1.1756,-1.1767,-1.179,-1.1781,-1.1792,-1.1795,-1.1797,-1.1801,-1.1729,-1.1794,-1.1794,-1.1794,-1.1794,-1.1794,0,-1.1577,-1.1587,-1.1609,-1.1633,-1.1653,-1.1645,-1.1663,-1.1681,-1.1707,-1.1722,-1.1743,-1.1774,-1.1799,-1.181,-1.1835,-1.1851,-1.1849,-1.1858,-1.1857,-1.186,-1.1807,-1.1798,-1.1859,-1.1859,-1.1859,-1.1859,-1.1859,-1.1859,-1.1612,-1.1647,-1.165,-1.1692,-1.1701,-1.173,-1.1742,-1.1757,-1.177,-1.1805,-1.1826,-1.1832,-1.1847,-1.1872,-1.1895,-1.1898,-1.1908,-1.1918,-1.1919,-1.187,-1.1863,-1.1857,-1.1849,-1.192,-1.192,-1.1971,-1.1971,-1.1971]}]]